Regional Weather Roundup
Issued by NWS State College, PA

Home | Current Version | Previous Version | Text Only | Print | Product List | Glossary Off
Versions: 1 2 3 4 5 6 7 8 9 10 11 12 13 14 15 16 17 18 19 20 21 22 23 24 25 26 27 28 29 30 31 32 33 34 35 36 37 38 39 40 41 42 43 44 45 46 47 48 49 50

000
ASUS41 KCTP 212203
RWRCTP

REGIONAL WEATHER ROUNDUP
NATIONAL WEATHER SERVICE STATE COLLEGE PA
500 PM EST FRI NOV 21 2014

Note: "fair" indicates few or no clouds below 12,000 feet with no
significant weather and/or obstructions to visibility.

* = STATION THAT DOES NOT REPORT PRECIPITATION /E.G. RAIN...SNOW...ETC/
    THUNDER OR FOG.

PAZ002>004-007>009-013>016-020>023-029>032-212300-
WESTERN PENNSYLVANIA

CITY           SKY/WX    TMP DP  RH WIND       PRES   REMARKS
ERIE           CLOUDY    25  14  63 SW10      30.47R WCI  15
MEADVILLE      CLEAR     21  10  62 SW6       30.44R WCI  13
FRANKLIN*      CLOUDY    21   9  58 SW6       30.45S WCI  14
NEW CASTLE       N/A     22   9  57 SW6       30.50R WCI  15
BEAVER COUNTY  CLEAR     25   9  50 W3        30.47R
BUTLER*        CLEAR     23   7  50 CALM      30.48R
PITTSBURGH INT PTCLDY    26   7  44 W5        30.47R
PITTSBURGH     CLEAR     26   4  38 W6        30.46R
INDIANA*       CLEAR     23   9  54 W8G15     30.49R WCI  14
LATROBE        CLEAR     25   9  50 SW6       30.49R
WASHINGTON CO* CLEAR     27   7  43 W7        30.48S
$$

PAZ004>006-010>012-017>019-024>028-033>037-041-042-045-046-049>053-212300-
CENTRAL PENNSYLVANIA

CITY           SKY/WX    TMP DP  RH WIND       PRES   REMARKS
BRADFORD       CLOUDY    20   7  57 W10       30.36R WCI   9
DUBOIS         CLEAR     20   8  60 W8        30.40R WCI  10
CLEARFIELD     PTCLDY    22   8  55 W7        30.43R WCI  13
JOHNSTOWN      CLEAR     20   6  55 W10       30.38R WCI   9
ALTOONA        CLEAR     23  10  57 NW10      30.44R WCI  12
STATE COLLEGE  CLEAR     25   9  50 W10       30.45R WCI  15
WILLIAMSPORT   PTCLDY    31   7  36 W9        30.44R
SELINSGROVE    CLEAR     30   8  39 W3        30.46R
FT INDIANTOWN  CLEAR     31   7  36 W8        30.46R
CAPITAL CITY   CLEAR     32   8  36 NW8       30.48R
HARRISBURG     CLEAR     30   8  39 NW12      30.48R
YORK           CLEAR     29   9  43 W5        30.47R
$$

PAZ038>040-043-044-047-048-054-055-060>062-067>071-212300-
EASTERN PENNSYLVANIA

CITY           SKY/WX    TMP DP  RH WIND       PRES   REMARKS
SCRANTON       CLEAR     29   8  41 NW10      30.40R
MOUNT POCONO   CLEAR     24   5  44 NW12      30.32R WCI  13
ALLENTOWN      CLEAR     32   7  35 W7        30.43R
QUAKERTOWN*    CLEAR     32   9  37 NW7       30.43R
READING        CLEAR     32   7  35 W9        30.44R
LANCASTER      CLEAR     29   9  43 NW10      30.46R
COATESVILLE    CLEAR     28   9  43 W7        30.45R
POTTSTOWN      CLEAR     30   8  39 NW9       30.46R
BLUE BELL      CLEAR     32  10  40 CALM      30.44R
DOYLESTOWN     CLEAR     30   8  39 W7        30.42R
WILLOW GROVE   NOT AVBL
NORTH PHILA    CLEAR     34   6  31 W7        30.47R
PHILADELPHIA   CLEAR     35   6  29 NW9       30.47R
$$


USA.gov is the U.S. government's official web portal to all federal, state and local government web resources and services.